TimeMDT,TemperatureF,Dew PointF,Humidity,Sea Level PressureIn,VisibilityMPH,Wind Direction,Wind SpeedMPH,Gust SpeedMPH,PrecipitationIn,Events,Conditions,WindDirDegrees,DateUTC
12:53 AM,52.0,25.0,35,29.88,10.0,South,4.6,-,N/A,,Clear,180,2012-11-01 06:53:00
1:53 AM,53.1,25.0,34,29.85,10.0,SSW,6.9,-,N/A,,Clear,200,2012-11-01 07:53:00
2:53 AM,50.0,27.0,41,29.82,10.0,South,8.1,-,N/A,,Clear,180,2012-11-01 08:53:00
3:53 AM,57.9,25.0,28,29.78,10.0,SW,11.5,-,N/A,,Clear,220,2012-11-01 09:53:00
5:53 AM,60.1,23.0,24,29.77,10.0,Variable,4.6,-,N/A,,Clear,0,2012-11-01 11:53:00
6:53 AM,57.9,24.1,27,29.79,10.0,SSE,6.9,-,N/A,,Clear,160,2012-11-01 12:53:00
7:53 AM,55.9,25.0,30,29.79,10.0,Calm,Calm,-,N/A,,Clear,0,2012-11-01 13:53:00
8:53 AM,51.1,28.0,41,29.80,10.0,WSW,8.1,-,N/A,,Clear,240,2012-11-01 14:53:00
9:53 AM,55.9,26.1,32,29.78,10.0,WNW,3.5,-,N/A,,Clear,300,2012-11-01 15:53:00
10:53 AM,57.9,27.0,31,29.78,10.0,WSW,9.2,-,N/A,,Clear,250,2012-11-01 16:53:00
11:53 AM,62.1,25.0,24,29.74,10.0,Variable,4.6,-,N/A,,Clear,0,2012-11-01 17:53:00
12:53 PM,57.9,27.0,31,29.74,10.0,SSE,6.9,-,N/A,,Clear,160,2012-11-01 18:53:00
1:53 PM,59.0,28.9,32,29.72,10.0,South,3.5,-,N/A,,Clear,170,2012-11-01 19:53:00
2:53 PM,59.0,28.9,32,29.70,10.0,Calm,Calm,-,N/A,,Clear,0,2012-11-01 20:53:00
3:53 PM,61.0,24.1,24,29.67,10.0,Calm,Calm,-,N/A,,Clear,0,2012-11-01 21:53:00
4:53 PM,57.9,27.0,31,29.69,10.0,NW,8.1,-,N/A,,Clear,310,2012-11-01 22:53:00
5:53 PM,55.0,27.0,34,29.72,10.0,NNE,6.9,-,N/A,,Clear,20,2012-11-01 23:53:00
6:53 PM,52.0,28.9,41,29.78,10.0,Calm,Calm,-,N/A,,Overcast,0,2012-11-02 00:53:00
7:53 PM,50.0,30.9,48,29.79,10.0,WSW,8.1,-,N/A,,Overcast,240,2012-11-02 01:53:00
8:53 PM,48.9,30.0,48,29.79,10.0,WNW,6.9,-,N/A,,Scattered Clouds,300,2012-11-02 02:53:00
9:53 PM,50.0,30.0,46,29.79,10.0,NW,10.4,-,N/A,,Overcast,320,2012-11-02 03:53:00
10:53 PM,51.1,28.9,43,29.78,10.0,NNW,5.8,-,N/A,,Overcast,340,2012-11-02 04:53:00
11:53 PM,48.0,28.9,48,29.78,10.0,NNE,3.5,-,N/A,,Scattered Clouds,30,2012-11-02 05:53:00